Location: ???? ?????????
(44.3677°N, 135.2344°E)
Time: 03:59:16
(UTC+00:00)

Cosmos 864 Rocket - Visible Passes

Search period start: 06 June 2026 00:00
Search period end: 16 June 2026 00:00
Orbit: 952 x 991 km, 82.9° (Epoch: 5 June)

Date Brightness Start Highest point End Pass type
(mag) Time Alt. Az. Time Alt. Az. Time Alt. Az.
6 Jun 5.3 15:44:08 10° N 15:50:08 45° ENE 15:54:10 20° SE visible
6 Jun 5.5 17:29:51 10° NNW 17:35:11 30° W 17:38:43 18° SW visible
7 Jun 6.8 14:25:16 10° NE 14:27:59 13° ENE 14:30:44 10° E visible
7 Jun 4.6 16:08:06 10° N 16:14:24 76° E 16:17:54 28° SSE visible
7 Jun 6.1 17:55:01 10° NW 17:58:55 17° W 18:02:27 11° WSW visible
8 Jun 6.3 14:47:56 10° NNE 14:52:42 22° ENE 14:57:05 11° ESE visible
8 Jun 4.6 16:32:19 10° NNW 16:38:31 64° W 16:41:38 31° SSW visible
9 Jun 5.6 15:11:27 10° N 15:17:13 37° ENE 15:20:51 20° SE visible
9 Jun 5.2 16:56:47 10° NNW 17:02:29 37° W 17:05:25 24° SW visible
10 Jun 7.0 13:54:14 10° NE 13:54:54 10° ENE 13:55:34 10° ENE visible
10 Jun 4.8 15:35:18 10° N 15:41:33 62° E 15:44:39 31° SSE visible
10 Jun 5.9 17:21:40 10° NW 17:26:17 22° W 17:29:12 16° WSW visible
11 Jun 6.5 14:15:30 10° NNE 14:19:41 18° ENE 14:23:52 10° ESE visible
11 Jun 4.5 15:59:25 10° N 16:05:44 79° W 16:08:28 37° S visible
11 Jun 6.4 17:47:41 10° NW 17:49:55 12° WNW 17:52:10 10° W visible
12 Jun 5.9 14:38:48 10° N 14:44:17 30° ENE 14:47:44 19° ESE visible
12 Jun 5.0 16:23:47 10° NNW 16:29:45 46° W 16:32:17 31° SW visible
13 Jun 5.1 15:02:33 10° N 15:08:41 51° ENE 15:11:35 30° SE visible
13 Jun 5.7 16:48:28 10° NNW 16:53:37 27° W 16:56:08 21° WSW visible
14 Jun 6.6 13:43:15 10° NNE 13:46:38 15° ENE 13:50:01 10° E visible
14 Jun 4.5 15:26:34 10° N 15:32:55 85° E 15:35:26 40° SSE visible
14 Jun 6.3 17:13:51 10° NW 17:17:19 15° W 17:19:59 12° WSW visible
15 Jun 6.1 14:06:13 10° NNE 14:11:18 25° ENE 14:14:45 16° ESE visible
15 Jun 4.7 15:50:50 10° NNW 15:57:00 57° W 15:59:18 37° SSW visible
